User: anonymous   Login
Location: Saint-Usage
(47.1052°N, 5.2587°E)
Time: 16:33:09
(UTC+01:00)
Language:

AO-91 - Orbit

View from above orbital plane
View from above orbital plane
View from above satellite
View from above satellite

Ground track
Ground track

The orbit data is extracted from the following two-line orbital elements,

1 43017U 17073E   22336.96436371  .00005789  00000-0  42758-3 0  9996
2 43017  97.6537 224.1917 0244220 355.7829   4.1323 14.82753764272071
Epoch (UTC): 02 December 2022 23:08:41
Eccentricity: 0.0244220
inclination: 97.6537°
perigee height: 450 km
apogee height: 791 km
right ascension of ascending node: 224.1917°
argument of perigee: 355.7829°
revolutions per day: 14.82753764
mean anomaly at epoch: 4.1323°
orbit number at epoch: 27207

The dashed part of the orbit path shows where the satellite is in the earth's shadow,  

DLR